Powrót do katalogu

STARLINK-6252

AktywnyŁącznośćVLEO
NORAD 56555·PAYLOAD·🇺🇸 United States

Wystrzelony May 14, 2023 z Cape Canaveral Space Force Station

Loading…

Następne Przeloty (najbliższe 24 godziny)

TLE

ŚwieżeSource: CelesTrak SupGP

Epoka: Sep 15, 2026, 02:30 UTC

1 56555C 23065BE  26258.10465278 -.00026740  00000+0 -96867-3 0  2585
2 56555  42.9995 233.5535 0000689 261.3585 125.3073 15.27586908    18

Śledź STARLINK-6252 w czasie rzeczywistym z AllMySat

Download on the App Store